Location: Unspecified
(0.0000°N, 0.0000°E)
Time: 23:02:58
(UTC+00:00)

Hubble Space Telescope - Pass Details

Date: 16 April 2026
Orbit: 474 x 477 km, 28.5° (Epoch: 18 April)

Event Time Altitude Azimuth Distance (km) Brightness Sun altitude
Rises 20:13:46 0° 253° (WSW) 2,510 5.0 -32.9°
Reaches altitude 10° 20:16:04 10° 261° (W) 1,631 3.9 -33.5°
Enters shadow 20:16:19 11° 262° (W) 1,542 3.8 -33.5°
